Location: Philomena
(55.1756°N, 111.6233°W)
Time: 08:48:32
(UTC+00:00)

PCSat - Pass Details

Date: 11 December 2023
Orbit: 784 x 791 km, 67.0° (Epoch: 23 February)

Event Time Altitude Azimuth Distance (km) Brightness Sun altitude
Exits shadow 14:28:26 12° 308° (NW) 2,252 11.3 -9.5°
Maximum altitude 14:32:21 23° 358° (N) 1,623 10.9 -9.0°
Drops below altitude 10° 14:36:40 10° 51° (NE) 2,366 12.3 -8.5°
Sets 14:39:35 0° 65° (ENE) 3,296 13.3 -8.1°
